TimeEDT,TemperatureF,Dew PointF,Humidity,Sea Level PressureIn,VisibilityMPH,Wind Direction,Wind SpeedMPH,Gust SpeedMPH,PrecipitationIn,Events,Conditions,WindDirDegrees,DateUTC
12:00 AM,-7.6,-9.4,92,30.27,6.0,NE,3.5,-,N/A,,Clear,40,2013-04-11 04:00:00
12:01 AM,-7.6,-9.4,92,30.27,5.0,NE,3.5,-,N/A,,Partly Cloudy,40,2013-04-11 04:01:00
12:09 AM,-11.2,-14.8,84,30.27,7.0,NNE,3.5,-,N/A,,Mostly Cloudy,30,2013-04-11 04:09:00
12:49 AM,-11.2,-13.0,92,30.28,4.0,NE,3.5,-,N/A,,Mostly Cloudy,50,2013-04-11 04:49:00
12:52 AM,-11.2,-13.0,92,30.28,2.0,NE,3.5,-,N/A,,Mostly Cloudy,40,2013-04-11 04:52:00
12:56 AM,-9.4,-13.0,84,30.29,1.0,ENE,3.5,-,N/A,,Overcast,60,2013-04-11 04:56:00
1:00 AM,-9.4,-13.0,84,30.29,0.8,NE,4.6,-,N/A,,Mist,50,2013-04-11 05:00:00
1:16 AM,-13.0,-16.6,84,30.29,1.2,NE,4.6,-,N/A,,Haze,50,2013-04-11 05:16:00
1:22 AM,-13.0,-16.6,84,30.29,2.5,NE,4.6,-,N/A,,Haze,50,2013-04-11 05:22:00
1:25 AM,-13.0,-16.6,84,30.29,2.0,NE,4.6,-,N/A,,Overcast,50,2013-04-11 05:25:00
1:32 AM,-9.4,-13.0,84,30.29,1.0,NE,5.8,-,N/A,,Overcast,40,2013-04-11 05:32:00
1:40 AM,-11.2,-14.8,84,30.30,1.2,NNE,4.6,-,N/A,,Mist,30,2013-04-11 05:40:00
1:50 AM,-9.4,-13.0,84,30.30,1.0,ENE,3.5,-,N/A,,Overcast,60,2013-04-11 05:50:00
2:00 AM,-12,-20,51,30.30,0,NE,2.3,,,,Overcast,50,2013-04-11 06:00:00
2:00 AM,-13.0,-16.6,84,30.29,0.8,NE,3.5,-,N/A,,Haze,50,2013-04-11 06:00:00
2:06 AM,-9.4,-13.0,84,30.30,0.5,Calm,Calm,-,N/A,Fog,Light Freezing Fog,0,2013-04-11 06:06:00
2:14 AM,-9.4,-14.8,77,30.30,0.5,NNE,4.6,-,N/A,,Haze,30,2013-04-11 06:14:00
2:44 AM,-13.0,-18.4,77,30.30,1.2,ENE,2.3,-,N/A,,Haze,70,2013-04-11 06:44:00
2:46 AM,-13.0,-16.6,84,30.30,2.2,ENE,3.5,-,N/A,,Haze,60,2013-04-11 06:46:00
2:48 AM,-13.0,-16.6,84,30.30,2.0,NE,3.5,-,N/A,,Haze,40,2013-04-11 06:48:00
2:54 AM,-11.2,-14.8,84,30.30,1.0,NNE,4.6,-,N/A,,Overcast,30,2013-04-11 06:54:00
3:00 AM,-9.4,-13.0,84,30.30,0.8,NE,4.6,-,N/A,,Mist,40,2013-04-11 07:00:00
3:53 AM,-13.0,-16.6,84,30.32,0.6,NE,4.6,-,N/A,Snow,Light Snow,40,2013-04-11 07:53:00
4:00 AM,-13.0,-16.6,84,30.33,0.6,NE,4.6,-,N/A,Snow,Light Snow,50,2013-04-11 08:00:00
4:04 AM,-11.2,-16.6,77,30.33,0.6,NE,4.6,-,N/A,,Haze,40,2013-04-11 08:04:00
5:00 AM,-11.2,-16.6,77,30.34,0.5,ENE,3.5,-,N/A,,Haze,60,2013-04-11 09:00:00
5:40 AM,-11.2,-16.6,77,30.35,0.8,NNE,2.3,-,N/A,Snow,Light Snow,30,2013-04-11 09:40:00
5:46 AM,-11.2,-16.6,77,30.35,1.2,NE,2.3,-,N/A,Snow,Light Snow,40,2013-04-11 09:46:00
5:54 AM,-11.2,-16.6,77,30.35,2.2,NE,3.5,-,N/A,Snow,Light Snow,40,2013-04-11 09:54:00
5:56 AM,-11.2,-16.6,77,30.35,3.0,NE,3.5,-,N/A,Snow,Light Snow,40,2013-04-11 09:56:00
6:00 AM,-11.2,-16.6,77,30.35,3.0,NNE,4.6,-,N/A,Snow,Light Snow,30,2013-04-11 10:00:00
6:04 AM,-11.2,-16.6,77,30.35,6.0,NNE,4.6,-,N/A,Snow,Light Snow,30,2013-04-11 10:04:00
6:19 AM,-13.0,-16.6,84,30.36,5.0,ENE,5.8,-,N/A,Snow,Light Snow,70,2013-04-11 10:19:00
6:25 AM,-13.0,-16.6,84,30.36,2.0,NE,5.8,-,N/A,Snow,Light Snow,50,2013-04-11 10:25:00
6:28 AM,-13.0,-16.6,84,30.36,0.8,NE,5.8,-,N/A,Snow,Light Snow,40,2013-04-11 10:28:00
6:40 AM,-11.2,-16.6,77,30.36,0.2,NE,5.8,-,N/A,,Haze,50,2013-04-11 10:40:00
7:00 AM,-11.2,-16.6,77,30.38,0.2,NE,4.6,-,N/A,,Haze,40,2013-04-11 11:00:00
7:11 AM,-11.2,-14.8,84,30.39,0.2,NNE,5.8,-,N/A,,Haze,30,2013-04-11 11:11:00
7:23 AM,-11.2,-14.8,84,30.39,0.5,NNE,5.8,-,N/A,Snow,Snow,30,2013-04-11 11:23:00
8:00 AM,-8,-15,59,30.41,1,NE,4.6,,,,,40,2013-04-11 12:00:00
8:00 AM,-9.4,-13.0,84,30.41,0.5,NE,4.6,-,N/A,Fog-Snow,Light Snow Grains,50,2013-04-11 12:00:00
8:26 AM,-9999,-9999,N/A,-9999,2.2,Calm,Calm,-,N/A,Fog,Unknown,0,2013-04-11 12:26:00
8:49 AM,-9999,-9999,N/A,-9999,0.2,North,3.5,-,N/A,Fog-Snow,Light Snow Grains,10,2013-04-11 12:49:00
9:00 AM,-2.2,-4.0,92,30.43,0.1,NE,3.5,-,N/A,Fog,Light Freezing Fog,40,2013-04-11 13:00:00
9:19 AM,-9999,-9999,N/A,-9999,0.1,Calm,Calm,-,N/A,Fog-Snow,Light Snow Grains,0,2013-04-11 13:19:00
10:00 AM,1.4,-4.0,78,30.46,0.1,East,2.3,-,N/A,Fog-Snow,Light Snow,100,2013-04-11 14:00:00
11:00 AM,5.0,1.4,85,30.47,0.4,Calm,Calm,-,N/A,Fog-Snow,Light Snow,0,2013-04-11 15:00:00
11:13 AM,-9999,-9999,N/A,-9999,0.6,Calm,Calm,-,N/A,,Mostly Cloudy,0,2013-04-11 15:13:00
11:26 AM,-9999,-9999,N/A,-9999,5.0,Calm,Calm,-,N/A,Fog,Unknown,0,2013-04-11 15:26:00
12:37 PM,-9999,-9999,N/A,-9999,15.0,ESE,3.5,-,N/A,,Unknown,120,2013-04-11 16:37:00
1:00 PM,6.8,3.2,85,30.50,15.0,ESE,3.5,-,N/A,Snow,Light Snow,120,2013-04-11 17:00:00
2:00 PM,9,6,83,30.51,6,SSW,4.6,,,,,200,2013-04-11 18:00:00
2:00 PM,8.6,5.0,85,30.51,15.0,South,4.6,-,N/A,Snow,Light Snow,190,2013-04-11 18:00:00
3:00 PM,12.2,10.4,92,30.51,15.0,SSW,4.6,-,N/A,,Partly Cloudy,210,2013-04-11 19:00:00
4:00 PM,14.0,8.6,79,30.52,15.0,Calm,Calm,-,N/A,,Scattered Clouds,0,2013-04-11 20:00:00
4:33 PM,-9999,-9999,N/A,-9999,15.0,South,2.3,-,N/A,,Unknown,190,2013-04-11 20:33:00
5:00 PM,12.2,8.6,85,30.53,15.0,SSE,3.5,-,N/A,Snow,Light Snow,160,2013-04-11 21:00:00
5:38 PM,12.2,10.4,92,30.54,5.0,SSW,5.8,-,N/A,Snow,Light Snow,200,2013-04-11 21:38:00
5:51 PM,12.2,10.4,92,30.54,6.0,South,4.6,-,N/A,Snow,Light Snow,190,2013-04-11 21:51:00
6:00 PM,12.2,10.4,92,30.54,9.0,South,3.5,-,N/A,Snow,Light Snow,180,2013-04-11 22:00:00
6:39 PM,10.4,8.6,92,30.54,9.0,SSE,4.6,-,N/A,,Mostly Cloudy,160,2013-04-11 22:39:00
6:43 PM,10.4,6.8,85,30.54,9.0,SSE,4.6,-,N/A,Snow,Light Snow,160,2013-04-11 22:43:00
6:57 PM,10.4,8.6,92,30.55,9.0,South,5.8,-,N/A,,Mostly Cloudy,180,2013-04-11 22:57:00
7:00 PM,10.4,6.8,85,30.55,9.0,South,5.8,-,N/A,,Overcast,180,2013-04-11 23:00:00
7:13 PM,8.6,6.8,92,30.55,9.0,Variable,2.3,-,N/A,Snow,Light Snow,0,2013-04-11 23:13:00
8:00 PM,6,1,70,30.56,9,WSW,3.5,,,,Overcast,240,2013-04-12 00:00:00
8:00 PM,6.8,5.0,92,30.56,9.0,WSW,4.6,-,N/A,Snow,Light Snow,240,2013-04-12 00:00:00
8:08 PM,6.8,5.0,92,30.56,9.0,SW,3.5,-,N/A,,Overcast,230,2013-04-12 00:08:00
8:27 PM,6.8,3.2,85,30.56,9.0,Calm,Calm,-,N/A,Snow,Light Snow,0,2013-04-12 00:27:00
8:30 PM,5.0,3.2,92,30.56,5.0,Calm,Calm,-,N/A,Snow,Light Snow,0,2013-04-12 00:30:00
8:33 PM,5.0,3.2,92,30.56,2.0,Variable,2.3,-,N/A,Snow,Light Snow,0,2013-04-12 00:33:00
8:37 PM,5.0,1.4,85,30.57,0.8,Calm,Calm,-,N/A,Snow,Light Snow,0,2013-04-12 00:37:00
8:46 PM,5.0,1.4,85,30.57,1.2,Calm,Calm,-,N/A,Snow,Light Snow,0,2013-04-12 00:46:00
8:50 PM,5.0,3.2,92,30.57,2.5,East,2.3,-,N/A,Snow,Light Snow,80,2013-04-12 00:50:00
8:51 PM,5.0,3.2,92,30.57,3.0,East,2.3,-,N/A,Snow,Light Snow,80,2013-04-12 00:51:00
8:52 PM,5.0,3.2,92,30.57,4.0,East,2.3,-,N/A,,Overcast,80,2013-04-12 00:52:00
8:54 PM,5.0,3.2,92,30.57,6.0,East,2.3,-,N/A,,Overcast,90,2013-04-12 00:54:00
9:00 PM,5.0,3.2,92,30.58,9.0,Variable,2.3,-,N/A,Snow,Light Snow,0,2013-04-12 01:00:00
9:17 PM,5.0,3.2,92,30.58,9.0,Calm,Calm,-,N/A,,Overcast,0,2013-04-12 01:17:00
9:37 PM,5.0,1.4,85,30.59,9.0,Variable,2.3,-,N/A,Snow,Light Snow,0,2013-04-12 01:37:00
10:00 PM,5.0,3.2,92,30.59,9.0,Variable,2.3,-,N/A,Snow,Light Snow,0,2013-04-12 02:00:00
10:19 PM,5.0,3.2,92,30.59,9.0,NE,3.5,-,N/A,,Overcast,50,2013-04-12 02:19:00
10:39 PM,5.0,3.2,92,30.60,9.0,ENE,2.3,-,N/A,Snow,Light Snow,70,2013-04-12 02:39:00
11:00 PM,5.0,3.2,92,30.59,9.0,ENE,3.5,-,N/A,Snow,Light Snow,70,2013-04-12 03:00:00
11:06 PM,5.0,3.2,92,30.59,9.0,Calm,Calm,-,N/A,Snow,Light Snow,0,2013-04-12 03:06:00